Date String (YYYY-MM-DD hh:mm:ss) UTC,Instrument flags,absolute air pressure of the measurement (hPa),sample flow rate (lpm),inlet stack bypass flow (lpm),air temperature of the measurement (°C),ambient temperature measured by the external sensor (°C),aerosol sample conditioner tube jacket temperature (°C),OPC LED temperature (°C),internal box temperature (°C),relative humidity of the measurement (%),span deviation,mass concentration of particles derived from Lorenz-Mie calculation of OPC scattering (μg/m³),mass concentration of particles derived from Lorenz-Mie calculation of OPC scattering (μg/m³),mass concentration of particles derived from Lorenz-Mie calculation of OPC scattering (μg/m³)
DateTimeUTC,F1_M11,P_M11,Q1_M11,Q2_M11,T1_M11,T2_M11,T3_M11,T4_M11,T5_M11,U1_M11,ZSPAN_M11,X2_M11,X0_M11,X1_M11
2023-08-31 08:00:00,SystemResetWarning,0828.6,5.00,000.00,025.6,023.6,000.0,034.0,027.2,22.2,0000.0,0003.09,0007.26,0002.51
2023-08-31 08:01:00,SystemResetWarning,0828.6,5.00,000.00,025.6,023.9,000.0,034.0,027.3,22.0,0000.0,0003.11,0007.38,0002.52
2023-08-31 08:02:00,SystemResetWarning,0828.6,5.01,000.00,025.7,024.2,000.0,034.0,027.4,22.1,0000.0,0003.14,0008.51,0002.54
2023-08-31 08:03:00,SystemResetWarning,0828.6,5.00,000.00,025.7,024.4,000.0,034.0,027.5,21.9,0000.0,0003.17,0008.93,0002.57
2023-08-31 08:04:00,SystemResetWarning,0828.6,4.99,000.00,025.8,024.6,000.0,034.0,027.5,23.3,0000.0,0003.17,0008.61,0002.59
2023-08-31 08:05:00,SystemResetWarning,0828.6,4.99,000.00,025.8,024.8,000.0,034.1,027.6,24.4,0000.0,0003.18,0008.85,0002.62
2023-08-31 08:06:00,SystemResetWarning,0828.6,5.00,000.00,025.9,024.9,000.0,034.1,027.7,25.4,0000.0,0003.21,0009.58,0002.66
2023-08-31 08:07:00,SystemResetWarning,0828.7,5.01,000.00,025.9,025.0,000.0,034.1,027.7,25.9,0000.0,0003.23,0009.72,0002.69
2023-08-31 08:08:00,SystemResetWarning,0828.8,5.00,000.00,025.9,024.5,000.0,034.1,027.6,26.2,0000.0,0003.24,0009.71,0002.71
2023-08-31 08:09:00,SystemResetWarning,0828.8,5.00,000.00,025.9,023.0,000.0,034.0,027.2,26.6,0000.0,0003.27,0009.77,0002.74
2023-08-31 08:10:00,SystemResetWarning,0828.9,5.02,000.00,025.8,022.6,000.0,034.0,027.1,27.3,0000.0,0003.32,0009.81,0002.78
2023-08-31 08:11:00,SystemResetWarning,0829.0,4.99,000.00,025.7,022.8,000.0,034.0,027.0,27.3,0000.0,0003.35,0009.47,0002.82
2023-08-31 08:12:00,SystemResetWarning,0828.9,5.00,000.00,025.7,023.1,000.0,034.0,027.1,26.0,0000.0,0003.40,0009.64,0002.87
2023-08-31 08:13:00,SystemResetWarning,0828.9,5.00,000.00,025.7,023.5,000.0,034.0,027.2,25.0,0000.0,0003.39,0009.07,0002.89
2023-08-31 08:14:00,SystemResetWarning,0828.9,5.00,000.00,025.7,023.8,000.0,034.1,027.3,24.4,0000.0,0003.36,0008.94,0002.89
2023-08-31 08:15:00,SystemResetWarning,0828.9,5.00,000.00,025.7,024.1,000.0,034.1,027.4,23.6,0000.0,0003.35,0008.46,0002.88
2023-08-31 08:16:00,SystemResetWarning,0828.9,5.00,000.00,025.8,024.3,000.0,034.1,027.5,23.3,0000.0,0003.35,0008.71,0002.87
2023-08-31 08:17:00,SystemResetWarning,0828.9,5.00,000.00,025.8,024.5,000.0,034.1,027.6,23.3,0000.0,0003.33,0008.57,0002.86
2023-08-31 08:18:00,SystemResetWarning,0829.0,4.99,000.00,025.9,024.7,000.0,034.1,027.6,23.3,0000.0,0003.34,0008.47,0002.87
2023-08-31 08:19:00,SystemResetWarning,0829.0,5.00,000.00,025.9,024.9,000.0,034.2,027.7,23.4,0000.0,0003.33,0008.53,0002.87
2023-08-31 08:20:00,SystemResetWarning,0828.9,5.00,000.00,026.0,025.0,000.0,034.2,027.7,23.4,0000.0,0003.34,0008.55,0002.88
2023-08-31 08:21:00,SystemResetWarning,0828.9,4.99,000.00,026.0,024.2,000.0,034.2,027.5,23.5,0000.0,0003.36,0008.59,0002.88
2023-08-31 08:22:00,SystemResetWarning,0829.0,5.00,000.00,025.8,022.4,000.0,034.1,027.0,23.5,0000.0,0003.34,0008.82,0002.86
2023-08-31 08:23:00,SystemResetWarning,0829.0,5.01,000.00,025.7,021.7,000.0,034.0,026.8,23.5,0000.0,0003.31,0008.75,0002.86
2023-08-31 08:24:00,SystemResetWarning,0828.9,5.01,000.00,025.6,021.9,000.0,034.0,026.7,23.5,0000.0,0003.30,0008.41,0002.85
2023-08-31 08:25:00,SystemResetWarning,0828.9,4.99,000.00,025.5,022.2,000.0,034.0,026.8,23.4,0000.0,0003.32,0008.30,0002.85
2023-08-31 08:26:00,SystemResetWarning,0828.9,5.00,000.00,025.5,022.7,000.0,034.0,026.9,23.1,0000.0,0003.33,0008.79,0002.86
2023-08-31 08:27:00,SystemResetWarning,0829.0,5.00,000.00,025.5,023.1,000.0,034.0,027.0,22.8,0000.0,0003.32,0008.37,0002.87
2023-08-31 08:28:00,SystemResetWarning,0828.9,4.99,000.00,025.6,023.4,000.0,034.0,027.1,23.0,0000.0,0003.31,0007.75,0002.87
2023-08-31 08:29:00,SystemResetWarning,0828.9,4.99,000.00,025.6,023.8,000.0,034.0,027.2,23.0,0000.0,0003.30,0007.71,0002.85
2023-08-31 08:30:00,SystemResetWarning,0828.9,5.00,000.00,025.6,024.0,000.0,034.0,027.3,22.8,0000.0,0003.29,0007.58,0002.85
2023-08-31 08:31:00,SystemResetWarning,0829.0,5.00,000.00,025.7,024.3,000.0,034.0,027.4,22.6,0000.0,0003.28,0007.53,0002.85
2023-08-31 08:32:00,SystemResetWarning,0829.0,5.01,000.00,025.7,024.5,000.0,034.0,027.5,22.4,0000.0,0003.24,0007.41,0002.83
2023-08-31 08:33:00,SystemResetWarning,0829.0,5.01,000.00,025.8,024.6,000.0,034.1,027.5,22.2,0000.0,0003.20,0006.88,0002.82
2023-08-31 08:34:00,SystemResetWarning,0829.0,5.00,000.00,025.8,024.8,000.0,034.1,027.6,22.2,0000.0,0003.19,0006.64,0002.79
2023-08-31 08:35:00,SystemResetWarning,0829.0,5.00,000.00,025.9,024.9,000.0,034.1,027.6,22.5,0000.0,0003.17,0006.33,0002.79
2023-08-31 08:36:00,SystemResetWarning,0828.9,5.00,000.00,025.9,025.0,000.0,034.1,027.7,22.6,0000.0,0003.18,0006.29,0002.76
2023-08-31 08:37:00,SystemResetWarning,0829.0,5.00,000.00,026.0,024.9,000.0,034.2,027.7,22.6,0000.0,0003.18,0005.34,0002.75
2023-08-31 08:38:00,SystemResetWarning,0829.0,5.00,000.00,025.9,023.5,000.0,034.1,027.3,23.0,0000.0,0003.19,0005.09,0002.75
2023-08-31 08:39:00,SystemResetWarning,0828.9,5.01,000.00,025.8,022.7,000.0,034.0,027.1,22.8,0000.0,0003.21,0005.25,0002.75
2023-08-31 08:40:00,SystemResetWarning,0828.9,5.00,000.00,025.7,022.7,000.0,034.0,027.0,23.4,0000.0,0003.23,0005.34,0002.76
2023-08-31 08:41:00,SystemResetWarning,0828.9,4.99,000.00,025.7,023.0,000.0,034.0,027.0,24.0,0000.0,0003.26,0005.54,0002.77
2023-08-31 08:42:00,SystemResetWarning,0829.0,5.00,000.00,025.7,023.3,000.0,034.1,027.1,23.5,0000.0,0003.28,0005.64,0002.77
2023-08-31 08:43:00,SystemResetWarning,0829.0,5.00,000.00,025.7,023.6,000.0,034.1,027.2,23.8,0000.0,0003.29,0005.69,0002.78
2023-08-31 08:44:00,SystemResetWarning,0829.0,5.00,000.00,025.7,023.9,000.0,034.1,027.3,23.3,0000.0,0003.31,0005.81,0002.78
2023-08-31 08:45:00,SystemResetWarning,0829.1,5.00,000.00,025.7,024.2,000.0,034.1,027.4,23.1,0000.0,0003.33,0005.80,0002.80
2023-08-31 08:46:00,SystemResetWarning,0829.1,5.00,000.00,025.8,024.4,000.0,034.1,027.5,22.9,0000.0,0003.36,0005.96,0002.81
2023-08-31 08:47:00,SystemResetWarning,0829.1,5.00,000.00,025.8,024.6,000.0,034.1,027.6,22.3,0000.0,0003.36,0005.86,0002.82
2023-08-31 08:48:00,SystemResetWarning,0829.1,5.00,000.00,025.9,024.7,000.0,034.2,027.6,22.4,0000.0,0003.40,0006.35,0002.83
2023-08-31 08:49:00,SystemResetWarning,0829.1,5.00,000.00,025.9,024.9,000.0,034.2,027.7,22.3,0000.0,0003.44,0006.53,0002.84
2023-08-31 08:50:00,SystemResetWarning,0829.1,5.00,000.00,026.0,025.0,000.0,034.2,027.8,21.9,0000.0,0003.43,0006.79,0002.84
2023-08-31 08:51:00,SystemResetWarning,0829.1,5.00,000.00,026.0,024.7,000.0,034.2,027.7,21.8,0000.0,0003.41,0007.70,0002.83
2023-08-31 08:52:00,SystemResetWarning,0829.2,4.99,000.00,025.9,023.3,000.0,034.1,027.3,21.8,0000.0,0003.38,0007.81,0002.82
2023-08-31 08:53:00,SystemResetWarning,0829.1,5.01,000.00,025.8,022.7,000.0,034.1,027.2,21.9,0000.0,0003.37,0008.72,0002.79
2023-08-31 08:54:00,SystemResetWarning,0829.1,5.01,000.00,025.8,022.8,000.0,034.1,027.1,22.0,0000.0,0003.37,0008.77,0002.78
2023-08-31 08:55:00,SystemResetWarning,0829.1,5.00,000.00,025.7,023.0,000.0,034.1,027.1,22.2,0000.0,0003.35,0008.80,0002.78
2023-08-31 08:56:00,SystemResetWarning,0829.1,5.00,000.00,025.7,023.4,000.0,034.1,027.2,22.4,0000.0,0003.33,0009.20,0002.78
2023-08-31 08:57:00,SystemResetWarning,0829.1,5.00,000.00,025.8,023.7,000.0,034.1,027.4,21.9,0000.0,0003.33,0009.43,0002.79
2023-08-31 08:58:00,SystemResetWarning,0829.1,5.00,000.00,025.8,024.0,000.0,034.1,027.4,21.4,0000.0,0003.33,0010.13,0002.79
2023-08-31 08:59:00,SystemResetWarning,0829.1,5.00,000.00,025.8,024.3,000.0,034.2,027.5,21.4,0000.0,0003.31,0009.97,0002.79
